Tracking 20083 objects as of 12-Dec-2019
HD Live streaming from Space Station
objects crossing your sky now

SL-16 DEB

Track SL-16 DEB now!
10-day predictions


NORAD ID: 42235
Int'l Code: 1993-016CP
Perigee: 738.2 km
Apogee: 956.5 km
Inclination: 71.0 °
Period: 101.7 minutes
Semi major axis: 7218 km
RCS: Unknown
Launch date: March 26, 1993
Source: Commonwealth of Independent States (former USSR) (CIS)
Launch site: PLESETSK MISSILE AND SPACE COMPLEX (PKMTR)

Note: This is SATELLITE DEBRIS
aabbcc
Your satellite tracking list
Your tracking list is empty




NASA's NSSDC Master Catalog

Two Line Element Set (TLE):
1 42235U 93016CP  19345.56781067  .00001324  00000-0  62730-3 0  9998
2 42235  70.9963  52.5830 0151154 274.3681  84.0185 14.15618663778754
Source of the keplerian elements: AFSPC